NUUKSIO Weather Reports


time (UTC)temp
C
wind
direction
speed
KPH
gust
KPH
rain 1hr
cm
rain 24hr
cm
rain mn
cm
humidity
%
barometer
mb
20260503184709 12 292 4.8 6.4 0.00 0.00 0.00 63 1007.6
20260503182708 12 310 4.8 6.4 0.00 0.00 0.00 62 1007.5
20260503180708 12 288 4.8 11.3 0.00 0.00 0.00 60 1007.5
20260503174709 13 284 3.2 6.4 0.00 0.00 0.00 60 1007.3
20260503172715 13 283 4.8 9.7 0.00 0.00 0.00 59 1007.3
20260503170708 13 279 3.2 9.7 0.00 0.00 0.00 56 1007.2
20260503150708 15 311 9.7 17.7 0.00 0.00 0.00 48 1007.4
20260503130707 16 282 9.7 20.9 0.00 0.00 0.00 45 1007.4
20260503110707 15 265 9.7 22.5 0.00 0.00 0.00 56 1007.8
20260503080707 11 281 4.8 9.7 0.00 0.00 0.00 69 1007.6
20260503072706 11 314 3.2 8.0 0.00 0.00 0.00 69 1007.0
20260503070706 10 278 4.8 11.3 0.00 0.00 0.00 77 1007.1
20260503054706 9 298 8.0 14.5 0.00 0.00 0.00 72 1006.4
20260503052706 9 304 8.0 16.1 0.00 0.00 0.00 75 1006.1
20260503050706 8 291 8.0 16.1 0.00 0.00 0.00 78 1006.0
20260503044706 7 277 6.4 12.9 0.00 0.00 0.00 84 1006.1
20260503042706 6 247 4.8 9.7 0.00 0.00 0.00 87 1005.9
20260503040706 6 273 6.4 12.9 0.00 0.00 0.00 89 1005.8
20260503034706 5 259 8.0 14.5 0.00 0.00 0.00 94 1005.6
20260503032706 4 245 6.4 12.9 0.00 0.00 0.00 96 1005.4
20260503030706 4 230 6.4 11.3 0.00 0.00 0.00 96 1005.8
20260503024706 4 230 6.4 11.3 0.00 0.00 0.00 97 1005.7
20260503022705 4 252 4.8 14.5 0.00 0.00 0.00 96 1005.5
20260503020705 4 224 6.4 12.9 0.00 0.00 0.00 96 1005.7
20260503014706 3 214 6.4 9.7 0.00 0.00 0.00 96 1005.7
20260503012705 3 219 6.4 9.7 0.00 0.00 0.00 95 1005.6
20260503010705 4 223 6.4 9.7 0.00 0.00 0.00 93 1005.8
20260503004705 4 174 8.0 12.9 0.00 0.00 0.00 95 1005.7
20260503002705 4 176 6.4 12.9 0.00 0.00 0.00 93 1006.0
20260503000705 4 192 6.4 12.9 0.00 0.00 0.00 91 1006.2
20260502234705 5 205 6.4 11.3 0.00 0.00 0.00 89 1006.5
20260502232705 5 187 6.4 11.3 0.00 0.00 0.00 87 1006.4
20260502230705 5 198 8.0 17.7 0.00 0.00 0.00 86 1006.8
20260502224705 6 189 8.0 17.7 0.00 0.00 0.00 86 1006.8
20260502222706 6 180 9.7 17.7 0.00 0.00 0.00 85 1006.9
20260502220705 6 190 8.0 17.7 0.00 0.00 0.00 85 1007.2
20260502214705 6 183 8.0 16.1 0.00 0.00 0.00 83 1007.4
20260502212705 6 180 8.0 14.5 0.00 0.00 0.00 81 1007.6
20260502210704 7 172 8.0 14.5 0.00 0.00 0.00 79 1007.8
20260502204705 7 195 6.4 14.5 0.00 0.00 0.00 77 1008.0
20260502202705 8 172 9.7 16.1 0.00 0.00 0.00 74 1008.2
20260502200704 9 173 9.7 19.3 0.00 0.00 0.00 70 1008.2
20260502194704 10 223 6.4 9.7 0.00 0.00 0.00 66 1008.3
20260502192704 10 223 8.0 14.5 0.00 0.00 0.00 65 1008.4
20260502190704 11 221 9.7 16.1 0.00 0.00 0.00 62 1008.5